www.pogodaiklimat.ru

Погода и климат >> Архив погоды >> Россия >> Приморский край >> Партизанск


ПОГОДА в Партизанске

  • Прогноз погоды в Партизанске
  • Монитор погоды в Партизанске
  • Климат города

АРХИВ ПОГОДЫ в Партизанске

Время (UTC), дата Ветер
(напр.,м/с)
 
Видим.   Явления Облачность Т
(С)
Тd
(С)
f
(%)
Тe
(С)
Тes
(С)
Комфортность P
(гПа)
Po
(гПа)
Тmin
(С)
Tmax
(С)
R
(мм)
R24
(мм)
S
(см)
21 18.04 СЗ 2 50 км 10/6 600 м
[Sc As op]
+4.6 +1.7 81 +2 +2 1009.7 984.4 +2.6
00 19.04 штиль 0 20 км слабый дождь 10/0
[As op]
+6.1 +1.9 74 +5 +8 1010.4 985.3
03 19.04 Ю 2 50 км {дождь} 10/0
[As op]
+9.3 +2.5 62 +8 +11 1009.4 984.5
06 19.04 СЗ 5 50 км {дождь} 9/6 1000 м
[Cu Sc Ac As]
+16.7 +4.1 43 +16 +17 1007.4 983.2
09 19.04 СЗ 3 50 км {дождь} 10/3 1000 м
[Sc Ac As]
+12.8 +6.0 63 +12 +12 1009.6 985.0 +16.8 0.1
12 19.04 С 4 50 км {дождь} 10/3 1000 м
[Sc As op]
+11.5 +6.4 71 +9 +9 1013.0 988.3
15 19.04 СЗ 3 50 км 4/0
[Cs]
+9.2 +4.8 74 +7 +7 1015.5 990.5
18 19.04 СЗ 3 50 км 3/0
[Ci fib]
+7.8 +4.1 77 +5 +5 1016.7 991.5
21 19.04 С 1 50 км туман на расстоянии 1/0
[Ci fib]
+6.5 +4.1 85 +5 +6 1018.6 993.3 +5.5
00 20.04 СВ 1 50 км 5/0
[Ci fib]
+14.0 +5.4 56 +15 +24 1018.7 994.1
03 20.04 Ю 8-11
{11}
50 км 10/0
[As op Cs]
+21.6 +1.0 25 +21 +22 комфорт 1016.2 992.1
06 20.04 Ю 6
{13}
50 км 10/0
[As op Cs]
+19.1 +1.9 32 +19 +20 1015.4 991.2
09 20.04 Ю 4
{10}
50 км 10/0
[Ac As Cs]
+14.6 +4.3 50 +14 +14 1014.1 989.5 +21.7
12 20.04 Ю 4 50 км 10/0
[Ac As Ci fib]
+10.6 +4.5 66 +8 +8 1015.4 990.5
15 20.04 В 2 50 км 5/0
[Ci fib]
+8.6 +4.6 76 +7 +7 1013.7 988.6
18 20.04 СЗ 2 50 км 5/0
[Ci fib]
+8.0 +3.2 72 +6 +6 1011.0 986.0
21 20.04 С 2 50 км 8/0
[Ci sp]
+6.3 +2.8 78 +4 +4 1010.6 985.4 +5.9
00 21.04 ЮВ 2 50 км 1/0
[Ci fib]
+15.6 +3.6 45 +16 +25 1009.6 985.3
03 21.04 З 4
{12}
50 км 3/0
[Ci]
+25.5 -4.5 13 +23 +34 комфорт 1007.9 984.4
06 21.04 СЗ 6-12
{12}
50 км 5/0
[Ac cast Ci fib]
+26.0 -1.8 16 +24 +27 комфорт 1007.3 983.8
09 21.04 С 10-15
{15}
20 км 10/0
[Ac lent]
+16.9 +3.1 40 +15 +15 1012.8 988.5 +27.1
12 21.04 СВ 6
{18}
20 км 10/0
[Ac lent]
+12.8 +2.6 50 +11 +11 1017.3 992.6
15 21.04 С 6-11
{14}
20 км 10/0
[Ac lent]
+10.8 -3.1 38 +8 +8 1019.9 994.8
18 21.04 С 3
{14}
20 км 10/0
[Ac lent]
+9.7 -7.4 29 +8 +8 1021.2 996.0
21 21.04 С 4 50 км 10/0
[Ac lent]
+9.7 -10.1 24 +8 +8 1023.6 998.3 +9.6
00 22.04 С 5
{11}
50 км 8/0
[Ac lent]
+11.4 -10.1 21 +9 +11 1024.7 999.6
03 22.04 С 5 50 км 10/0
[Cs]
+16.5 -13.1 12 +16 +23 1023.0 998.3
06 22.04 С 4 50 км 5/0
[Ci fib]
+18.5 -13.8 10 +18 +24 1021.5 997.1
09 22.04 С 4 50 км 10/0
[Ci fib]
+15.7 -13.4 12 +15 +16 1022.1 997.4 +18.9
12 22.04 С 4
{10}
50 км 10/0
[Cs]
+11.8 -9.3 22 +10 +10 1025.2 1000.1
15 22.04 С 4 50 км 10/0
[Cs]
+10.1 -10.4 22 +8 +8 1026.0 1000.8
18 22.04 С 3 50 км 6/0
[Ci fib]
+5.6 -9.5 33 +3 +3 1026.5 1000.8
21 22.04 С 2 50 км 10/0
[Cs]
+3.3 -8.6 41 +1 +2 1027.6 1001.7 +3.6
00 23.04 ЮВ 1 50 км 10/0
[Cs]
+12.4 -7.6 24 +13 +22 1027.0 1001.9 +3.3
03 23.04 Ю 4 20 км 10/0
[Cs]
+16.7 -12.9 12 +16 +25 1024.9 1000.3
06 23.04 Ю 5 10 км дым 1/0
[Ci fib]
+17.0 -11.9 13 +16 +22 1022.1 997.5
09 23.04 Ю 4 20 км ясно +12.7 -11.1 18 +11 +12 1022.0 997.1 +18.6
12 23.04 Ю 1 20 км 4/0
[Cs]
+8.4 -9.6 27 +9 +9 1023.3 997.9
15 23.04 С 2 20 км 8/0
[Cs]
+5.3 -7.9 38 +4 +4 1023.0 997.4
18 23.04 С 3 20 км 6/0
[Cs]
+5.6 -9.0 34 +3 +3 1021.0 995.4
21 23.04 СВ 3 10 км дым 10/0
[Ac As Cs]
+6.5 -9.4 31 +4 +4 1019.5 994.1 +4.1
00 24.04 Ю 3 10 км дым 10/0
[Ci sp]
+11.4 -7.7 25 +10 +16 1018.5 993.6
03 24.04 Ю 4 10 км дым 10/0
[Ci sp]
+18.3 -9.9 14 +18 +27 1015.2 990.9
06 24.04 Ю 7
{11}
10 км дым 10/0
[Ci fib]
+15.7 -8.7 18 +14 +17 1013.5 989.0
09 24.04 Ю 5
{12}
10 км дым 10/0
[Ac trans Ci fib]
+12.0 -8.8 22 +10 +11 1014.1 989.3 +19.2
12 24.04 З 2 10 км дым 10/0
[Ac trans Ci fib]
+7.9 -7.5 33 +7 +7 1015.5 990.3
15 24.04 штиль 0 10 км дым 10/0
[Ac trans Ci fib]
+6.9 -7.8 34 +7 +7 1014.7 989.4
18 24.04 Ю 1 10 км дым 10/0
[Ci fib]
+3.9 -7.0 45 +3 +3 1013.9 988.4
21 24.04 З 1 4000 м дым 5/0
[Ci fib]
+3.8 -7.6 43 +3 +4 1014.1 988.6 +2.7
00 25.04 ЮВ 1 2000 м дым ясно +10.8 -6.9 28 +11 +22 опасность
простуды
1013.5 988.7
03 25.04 Ю 6 1000 м дым ясно +17.9 -6.9 18 +17 +24 1011.0 986.8
06 25.04 Ю 7-11
{12}
4000 м дым ясно +15.3 -6.0 22 +14 +17 1009.9 985.4
09 25.04 Ю 5
{11}
10 км дым 1/0
[Ac trans]
+11.9 -2.3 37 +10 +10 1009.9 985.2 +18.0
12 25.04 Ю 1 10 км дым ясно +7.1 +0.7 64 +7 +7 1011.8 986.7
15 25.04 СЗ 1 10 км дым ясно +5.9 -1.0 61 +5 +5 1011.3 986.0
18 25.04 штиль 0 10 км дым ясно +4.6 -3.6 55 +4 +4 1009.7 984.3

 

Местоположение метеостанции Партизанск (Приморский край, Россия): широта 43.15 долгота 133.00 высота над уровнем моря 208 м.

В архиве по умолчанию представлена погода в Партизанске за последнюю неделю. Архивные данные за месяц целиком и за предыдущие месяцы, начиная с января 2011 года, Вы можете получить, выбрав интересующий диапазон дат из раскрывающегося списка и нажав кнопку "Ввод!".


*Определитесь, кто Вы:
робот инопланетянин человек

Внимание! Время в таблицах - всемирное. Для получения местного времени необходимо прибавить поправку, которая в Партизанске равна 10 ч.

Смотрите также архив погоды в соседних городах и на ближайших метеорологических станциях:

Погода в Находке (Приморский край, Россия) (42 км)
Погода в Многоудобном (Приморский край, Россия) (56 км)
Погода в Лазо (Приморский край, Россия) (71 км)
Погода в Преображении (Приморский край, Россия) (78 км)
Погода в Владивостоке (Приморский край, Россия) (89 км)
Погода на Мысе Назимова (Приморский край, Россия) (90 км)
Погода в Анучино (Приморский край, Россия) (91 км)
Погода в Лучегорске (Приморский край, Россия) (117 км)
Погода в Тимирязевском (Приморский край, Россия) (120 км)
Погода в Чугуевке (Приморский край, Россия) (129 км)

Пояснения к столбцам:

Ветер - указаны скорость ветра в м/с - средняя за 10 мин, порывы в срок и между сроками (в фигурных скобках) и направление, откуда дует ветер: С - северный, СВ - северо-восточный, В - восточный, ЮВ - юго-восточный, Ю - южный, ЮЗ - юго-западный, З - западный, СЗ - северо-западный.
Видимость - горизонтальная дальность видимости в метрах или километрах. При видимости от 1 до 10 км при отсутствии осадков обычно наблюдается дымка, при ухудшении видимости до 1 км и менее - туман. В сухую погоду видимость может ухудшаться дымом, пылью или мглою.
Явления - указаны атмосферные явления, наблюдавшиеся в срок или в последний час перед сроком; фигурными скобками обозначены явления, наблюдавшиеся между сроками (за 1-3 часа до срока); квадратными скобками обозначены град или гололедные отложения с указанием их диаметра в мм.
Облачность - указаны через наклонную черту общая и нижняя облачность в баллах и высота нижней границы облаков в метрах; квадратными скобками обозначены формы облаков: Ci - перистые, Cs - перисто-слоистые, Cc - перисто-кучевые, Ac - высококучевые, As - высокослоистые, Sc - слоисто-кучевые, Ns - слоисто-дождевые, Cu - кучевые, Cb - кучево-дождевые. Подробнее классификацию облаков см. в Атласе облаков (PDF).
T - Температура воздуха - температура, измеренная на высоте 2 м над землей.
Td - Температура точки росы - температура, при понижении до которой содержащийся в воздухе водяной пар достигнет насыщения.
f - Относительная влажность воздуха - влажноcть воздуха, измеренная на высоте 2 м над землей.
Te - Эффективная температура - температура, которую ощущает одетый по сезону человек в тени. Характеристика душности погоды. При расчете учитывается влияние влажности воздуха и скорости ветра на теплоощущения человека.
Tes - Эффективная температура на солнце - температура, которую ощущает человек, с поправкой на солнечный нагрев. Характеристика знойности погоды. Зависит от высоты солнца над горизонтом, облачности и скорости ветра. Ночью, в пасмурную погоду, а также при ветре 12 м/с и более поправка равна нулю.
P - Атмосферное давление - приведенное к уровню моря атмосферное давление.
Po - Атмосферное давление - измеренное на уровне метеостанции атмосферное давление.
Tmin - Минимальная температура - минимум температуры воздуха на высоте 2 м над землей.
Tmax - Максимальная температура - максимум температуры воздуха на высоте 2 м над землей.
R - Количество осадков - Количество выпавших осадков за период времени, мм. При наведении курсора мыши на число - период времени, за который выпало указанное количество осадков.
R24 - Количество осадков - Количество выпавших осадков за 24 часа, мм.
S - Снежный покров - Высота снежного покрова, см. При наведении курсора мыши на число - состояние снежного покрова и степень покрытия местности в баллах.